This demonstration page uses our WeatherBlox Daily Observations layout. Learn more.

Left ArrowRight Arrow

41.55636, -103.73856

Hourly Observations for November 11, 2021

Temp ( °F °C ) Dew Point ( °F °C ) Humidity (%) Winds ( mph kmh ) Pressure ( in mb ) Visibility ( mi km ) Precip ( " mm )
12:58 am 00:58 Mostly Cloudy 33 0.8 24 -4.4 69 69 NW 12 19 30.18 1022 10 16 0.00 0.00
1:58 am 01:58 Cloudy 33 0.7 21 -6.3 60 60 NW 12 19 30.18 1022 10 16 0.00 0.00
2:58 am 02:58 Mostly Cloudy 33 0.7 19 -7.1 56 56 NW 16 26 30.17 1022 10 16 0.00 0.00
3:58 am 03:58 Mostly Cloudy 31 -0.8 19 -7.1 63 63 WNW 12 19 30.19 1022 10 16 0.00 0.00
4:58 am 04:58 Mostly Cloudy 30 -1 20 -6.7 66 66 WNW 13 20 30.22 1023 10 16 0.00 0.00
5:58 am 05:58 Mostly Cloudy 30 -1 20 -6.7 66 66 WNW 14 22 30.23 1024 10 16 0.00 0.00
6:58 am 06:58 Mostly Cloudy 29 -1.4 20 -6.4 69 69 W 12 19 30.25 1024 10 16 0.00 0.00
7:58 am 07:58 Partly Cloudy 29 -1.6 22 -5.6 74 74 W 9 15 30.25 1024 10 16 0.00 0.00
8:58 am 08:58 Sunny 33 0.8 21 -6.3 59 59 WNW 16 26 30.22 1023 10 16 0.00 0.00
9:58 am 09:58 Sunny 37 2.8 18 -7.8 46 46 NW 24 39 30.18 1022 10 16 0.00 0.00
10:58 am 10:58 Sunny 39 4 17 -8.4 40 40 NW 24 39 30.14 1021 10 16 0.00 0.00
11:58 am 11:58 Sunny 41 4.8 15 -9.6 35 35 NW 24 39 30.09 1019 10 16 0.00 0.00
12:58 pm 12:58 Partly Cloudy 42 5.7 13 -10.4 31 31 NW 23 37 30.08 1019 10 16 0.00 0.00
1:58 pm 13:58 Partly Cloudy 43 6 15 -9.4 32 32 NNW 22 35 30.07 1018 10 16 0.00 0.00
2:58 pm 14:58 Mostly Cloudy 40 4.4 14 -10.1 34 34 NNW 22 35 30.08 1019 10 16 0.00 0.00
3:58 pm 15:58 Cloudy 39 4 12 -11 33 33 NNW 20 31 30.08 1019 10 16 0.00 0.00
4:58 pm 16:58 Mostly Cloudy 38 3.4 13 -10.6 35 35 NW 21 33 30.10 1019 10 16 0.00 0.00
5:58 pm 17:58 Mostly Cloudy 38 3.1 13 -10.6 36 36 NNW 29 46 30.10 1019 10 16 0.00 0.00
6:58 pm 18:58 Mostly Cloudy 37 2.8 10 -12.1 33 33 NNW 29 46 30.12 1020 10 16 0.00 0.00
7:58 pm 19:58 Mostly Cloudy 36 2.1 9 -12.7 33 33 NNW 24 39 30.16 1022 10 16 0.00 0.00
8:58 pm 20:58 Cloudy 35 1.6 6 -14.2 30 30 NNW 24 39 30.20 1023 10 16 0.00 0.00
9:58 pm 21:58 Mostly Cloudy 34 0.9 7 -14 32 32 N 20 31 30.22 1024 10 16 0.00 0.00
10:58 pm 22:58 Cloudy 32 0.1 11 -11.7 41 41 NW 13 20 30.24 1024 10 16 0.00 0.00
11:58 pm 23:58 Mostly Cloudy 31 -0.4 11 -11.8 42 42 NW 18 30 30.24 1024 10 16 0.00 0.00

Powered by AerisWeather